Location: Sternwarte Stuttgart
(48.7670°N, 9.1830°E)
Time: 16:48:05
(UTC+02:00)

Cosmos 1656 - Pass Details

Date: 24 January 2019
Orbit: 800 x 848 km, 71.1° (Epoch: 17 April)

Event Time Altitude Azimuth Distance (km) Brightness Sun altitude
Rises 07:12:42 0° 199° (SSW) 3,394 6.9 -8.4°
Reaches altitude 10° 07:15:08 10° 198° (SSW) 2,465 6.2 -8.1°
Maximum altitude 07:20:47 73° 114° (ESE) 888 4.1 -7.2°
Drops below altitude 10° 07:26:28 10° 31° (NNE) 2,475 6.3 -6.3°
Sets 07:28:55 0° 30° (NNE) 3,410 7.0 -6.0°
